Location: Winnipeg
(49.8830°N, 97.1670°W)
Time: 17:32:50
(UTC-06:00)

ISS - Pass Details

Date: 30 January 2021
Orbit: 417 x 422 km, 51.6° (Epoch: 06 March)

Event Time Altitude Azimuth Distance (km) Brightness Sun altitude
Rises 19:35:59 0° 287° (WNW) 2,377 1.3 -21.8°
Reaches altitude 10° 19:38:06 10° 285° (WNW) 1,511 0.1 -22.1°
Enters shadow 19:40:55 55° 258° (WSW) 515 -3.1 -22.6°
